NOAA 16 DEB

Satellite information

Favourite Embed

Satellite Type and Status

DEBRISIN ORBIT

Key statistics

Satellite NOAA 16 DEB at a glance.

Uptime

9215

Days in orbit

Revolutions

≈ 14.4

Per day

Orbit

SSO

Sun Synchronous Orbit

Inclination

98.7

Latest

Satellite identification and parameters

Extended collection of information and parameters for NOAA 16 DEB.

Object identification

Identified? True

Debris? True

Object name: NOAA 16 DEB

International designator: 2000-055NU

Object number (NORAD): 41655

Object ID (CCSDS): 41655

Country: UNITED STATES OF AMERICA (US)

Current information (Y/N): Y

RCS size: SMALL

Orbital parameters

Period: 100.287 minutes

Inclination: 98.7212 deg

SMA: 7150.307 km

Apoapsis: 783.724 km

Periapsis: 760.62 km

RAAN: 82.2614 deg

Eccentricy: 0.00161559

Argument of periapsis: 327.9963 deg

Mean anomaly: 32.024 deg

Mean motion: 14.35872027 rev/day

Mean motion (dot): 0.00010416 rev/day2

B* drag term: 0.0035995699 1/REarth

Two-line elements (TLE)

Creation date: Dec. 11, 2025, 7:14 p.m.

Reference frame: TEME

Reference center: EARTH

Epoch: Dec. 11, 2025, 11:46 a.m. UTC

TLE line 0: 0 NOAA 16 DEB

TLE line 1: 1 41655U 00055NU 25345.49070582 .00010416 00000-0 35996-2 0 9991

TLE line 2: 2 41655 98.7212 82.2614 0016156 327.9963 32.0240 14.35872027500390

Live tracking on map

Real-time ground track for satellite NOAA 16 DEB.

In-orbit conjunctions

A list of the most updated potential collisions computed for object NOAA 16 DEB.

Target Orbit TCA Probability of collision Miss distance Type
RUBIN 9.1/RUBIN 9.2/PSLV SSO 2025-05-05 08:47:48 0.0001245738 522.0 (m) PAYLOAD
CZ-6A DEB LEO 2025-02-26 20:13:37 0.0003616083 312.0 (m) DEBRIS
COSMOS 1624 LEO 2024-10-20 21:49:06 0.0002091227 79.0 (m) PAYLOAD
COSMOS 1174 LEO 2024-10-04 23:43:55 0.0001007982 862.0 (m) PAYLOAD

Associated space launch

The NOAA K, L and M POES satellites begin the fifth generation of improved environmental monitoring in support of NOAA missions. The instrument payload has significant improvements and additions/deletions. The instrument changes have effected the spacecraft subsystems and data formats.

NOAA 16 DEB was lifted into orbit during the mission ‘Titan II SLV | NOAA 16’, on board a Titan II SLV space rocket.

The launch took place on Sept. 21, 2000, 10:22 a.m. from Space Launch Complex 4W.

For more information about the launch, click the button.

Launch to space Titan II SLV | NOAA 16
Titan II SLV | NOAA 16

Agency: N/A

Status: Launch Successful

Launch date: Sept. 21, 2000, 10:22 a.m. UTC

Rocket: Titan II SLV

Launch pad: Space Launch Complex 4W

Location: Vandenberg SFB, CA, USA

...

Latest news about this satellite

There are no fresh news available about this satellite. Check back as we update our databases every day.


Newsletter sign-up

Weekly statistics, charts and insights to help you stay on top of the space industry.